STARLINK-32650 (62231 NORAD) Tracking and Keplerian Element Data

This shows tracking and keplerian element data for the satellite.

Feedback or suggestion? Click here.




ElementValue
Catalog62231
NameSTARLINK-32650
Epoch Orbit1064
Epoch Day34.8468899
Epoch Year2025
RAAN276.4883
Inclination53.1599
Eccentricity9.41E-05
Argument of Perigee58.8246
Mean Anonmoly301.2851
Mean Motion15.39620816
Decay Rate3.07E-06
L11 62231U 24231P 25034.84688990 .00000307 00000+0 17660-4 0 9995
L22 62231 53.1599 276.4883 0000941 58.8246 301.2851 15.39620816 10645



Live tracking and technical data element details for STARLINK-32650 (NORAD 62231). STARLINK-32650 can be tracked NOW for your location showing map with azimuth and elevation plus other details from your city location.







IsCatalogInMostPopularTable: catalog: 62231, numindb: 19
Update: records affected: 1



GetName: 62231 STARLINK-32650

Hit Count: updated at: Sat, 24 May 2025 17:29:54 GMT